Terminal Aerodrome Forecast
Issued by NWS

Home | Current Version | Previous Version | Text Only | Print | Product List | Glossary On
Versions: 1 2 3 4 5 6 7 8 9 10 11 12 13 14 15 16 17 18 19 20 21 22 23 24 25 26 27 28 29 30 31 32 33 34 35 36 37 38 39 40 41 42 43 44 45 46 47
000
FTAK31 PANC 280116 AAA
TAFASN
TAF AMD
PASN 280116Z 2801/2824 02011KT 6SM -SHRA BR SCT010 BKN040
      TEMPO 2801/2804 BKN010 BKN025
     FM280400 01006KT 5SM BR BKN005 OVC015
     FM281500 VRB03KT 5SM BR OVC015
     FM282200 14010KT 6SM BR OVC015=

USA.gov is the U.S. government's official web portal to all federal, state and local government web resources and services.